Wetbulb
65.72 68.22 70.86 70.98 71.65 72.47 72.72 72.66 73.04 73.37 73.52 73.47 73.35 73.27 73.32 73.43 73.47 73.57 73.61 73.89 73.86 73.40 72.65 72.26 72.36 72.53 72.55 72.33 71.89 71.72 71.63 71.69 72.08 72.46 72.62 72.53 72.83 73.15 72.82 72.73 72.44 71.21 72.53
65.44 67.13 69.38 69.72 70.08 70.18 70.94 71.94 72.58 72.93 72.81 73.65 73.42 73.08 73.06 73.07 73.22 73.18 73.23 73.06 73.54 73.37 72.85 72.58 72.16 71.79 71.66 71.25 71.35 71.55 71.47 71.05 71.09 71.88 72.18 71.77 72.46 72.65 72.23 71.82 71.90 71.24 72.39
62.42 64.53 66.86 68.55 68.84 68.99 69.28 69.90 70.64 71.25 72.09 71.81 72.40 73.34 73.33 73.20 72.96 72.76 72.83 73.05 72.76 72.70 72.55 72.85 72.36 72.01 71.54 71.09 70.91 71.07 71.15 70.84 70.89 70.95 71.68 68.87 69.07 72.03 71.64 70.24 71.24 72.19 72.46
61.76 62.04 64.50 66.55 67.28 67.79 67.83 68.88 68.93 69.57 69.55 69.91 70.78 71.48 72.20 72.75 73.15 72.88 72.80 72.63 72.74 72.46 72.26 72.46 72.75 72.23 72.56 71.30 70.46 69.97 70.34 70.31 70.17 70.42 69.19 69.06 69.28 71.54 71.86 71.54 71.14 71.21 71.57
59.16 60.01 61.20 64.27 65.13 65.95 66.07 66.84 67.40 67.94 67.41 65.79 66.86 68.36 68.92 69.90 71.17 71.90 71.99 71.99 72.61 72.68 72.64 72.50 72.58 72.86 72.06 71.11 70.30 69.62 69.51 69.69 69.44 69.44 68.25 67.98 67.24 70.04 72.48 72.23 71.46 71.36 70.64
57.10 59.16 61.31 63.12 63.71 63.32 63.65 64.08 64.05 64.98 64.84 63.93 65.23 66.26 66.24 67.30 68.29 69.28 69.98 70.80 71.37 71.97 72.19 72.22 72.22 72.05 71.20 70.50 70.38 69.85 69.01 68.84 68.86 67.29 67.40 67.97 68.62 69.80 71.64 71.54 70.62 70.44 70.42
54.67 54.70 58.14 62.22 62.48 61.72 61.94 62.63 63.01 63.75 62.44 62.30 62.93 63.24 63.62 64.47 64.67 64.43 64.89 65.44 66.43 66.76 68.84 71.23 71.56 71.38 70.69 70.24 70.08 69.81 68.85 68.11 67.51 66.61 66.88 66.79 66.93 70.02 71.49 71.69 70.84 70.67 70.40
52.81 52.62 52.37 57.25 59.90 61.51 62.03 61.19 62.16 62.07 60.58 60.90 60.51 61.10 61.85 61.84 62.03 62.36 62.68 63.31 63.61 64.06 65.94 68.09 69.76 70.03 69.85 69.68 69.70 69.08 68.16 67.60 67.68 66.54 66.86 66.39 67.49 69.59 70.83 71.91 70.56 70.10 70.30
51.64 50.82 50.20 50.36 53.45 57.09 59.99 59.98 60.29 59.36 58.98 59.38 59.07 58.41 58.26 59.06 59.07 59.57 60.04 60.68 61.33 62.08 62.49 62.62 62.79 65.02 68.56 68.96 68.77 68.05 67.49 67.71 66.70 66.06 67.04 66.53 68.28 69.59 70.78 71.03 71.34 70.32 70.25
49.77 49.24 48.70 48.65 49.24 49.62 50.41 57.69 58.24 57.28 57.34 57.54 57.13 56.74 55.75 55.65 56.76 57.41 57.88 58.48 59.23 59.77 60.00 60.70 61.02 61.49 63.11 66.77 67.53 67.15 66.85 67.33 66.51 66.07 66.12 66.52 68.68 69.75 70.56 71.26 70.71 70.56 70.15
48.24 47.31 47.24 47.26 47.63 48.60 49.50 52.66 52.89 55.17 55.00 54.83 53.87 54.88 51.89 50.36 51.52 52.22 55.14 55.96 56.55 57.35 57.54 57.47 57.92 58.09 58.54 60.66 65.08 65.98 66.61 68.12 66.87 66.67 66.32 66.77 68.21 69.64 70.19 70.64 70.77 69.78 70.09
45.45 45.77 45.80 46.07 46.24 47.16 50.43 47.37 47.95 49.43 48.42 48.82 49.37 48.74 49.19 48.26 50.31 50.74 51.75 53.39 53.80 53.50 52.41 53.15 53.69 54.14 53.78 53.79 55.81 58.75 66.28 67.40 67.67 67.42 66.93 66.59 67.96 69.53 70.09 70.79 70.51 70.08 69.71
44.81 45.30 45.51 45.16 45.32 45.31 45.71 45.85 46.16 46.53 46.70 47.30 47.52 47.29 47.02 47.39 47.18 47.32 47.11 47.47 47.15 48.40 45.67 46.60 46.65 47.23 48.40 50.31 52.45 54.81 56.84 60.31 67.04 67.72 67.20 66.41 67.71 69.23 70.04 70.71 70.80 70.66 69.11
43.42 44.28 44.45 44.06 44.29 44.05 44.51 44.28 44.85 45.65 44.98 45.52 45.97 46.29 45.01 44.80 44.58 44.50 44.32 44.46 44.34 44.10 43.22 43.73 44.45 45.92 46.98 48.50 50.51 51.83 54.54 57.01 60.09 63.90 66.99 65.43 66.37 68.57 69.59 70.70 71.08 70.62 69.84
42.92 43.33 43.13 42.92 42.80 43.40 43.36 43.18 43.58 43.31 43.82 44.03 44.29 44.95 43.65 42.44 42.12 42.26 41.99 42.21 42.34 42.48 42.54 42.94 43.50 44.27 45.33 46.78 48.59 50.24 52.55 54.55 56.11 59.68 63.93 65.28 64.97 66.66 68.28 69.59 71.04 71.10 70.58
43.31 42.55 42.16 42.27 41.99 42.18 41.63 41.59 41.79 42.68 42.59 42.96 41.20 41.00 42.36 41.52 40.39 40.92 40.85 41.00 40.47 41.01 41.72 42.11 42.09 42.38 43.31 45.48 46.63 47.74 48.33 49.10 51.33 53.84 57.96 62.20 63.95 65.09 66.50 68.12 69.87 69.97 71.27
42.09 42.97 42.62 41.86 40.93 40.47 40.17 40.67 41.00 41.68 41.43 40.42 39.11 40.09 40.27 40.08 39.12 39.88 39.59 39.04 39.26 40.04 40.37 41.00 41.64 42.36 41.79 42.93 43.37 44.88 46.11 47.15 48.66 50.99 53.56 57.64 60.87 62.88 63.66 65.43 67.15 68.79 69.47
40.88 40.61 41.13 42.46 40.14 39.48 39.59 40.20 40.46 39.63 39.36 38.41 37.91 38.45 38.77 39.17 38.72 38.88 37.92 37.78 38.66 38.70 38.92 39.09 39.48 39.00 40.23 40.97 41.28 42.02 43.69 46.00 47.82 48.57 50.46 51.98 58.42 62.04 63.24 63.82 64.52 66.15 67.64
39.87 39.35 38.77 39.17 38.95 39.18 38.90 39.48 38.96 37.84 37.58 36.91 37.12 37.00 37.63 38.13 38.41 37.04 37.42 37.14 37.19 36.43 36.57 37.36 37.89 38.84 38.77 39.80 40.98 42.40 42.66 43.78 44.96 46.98 47.87 49.22 52.62 56.25 60.53 63.94 63.31 63.02 64.53
38.89 38.83 38.77 38.97 38.39 38.08 37.96 37.78 37.28 36.81 36.40 36.49 35.89 36.39 36.45 36.54 36.62 35.64 35.60 35.40 35.34 34.90 36.28 37.32 37.24 38.69 39.17 39.43 41.10 41.63 42.15 43.14 44.28 45.95 47.24 49.73 52.73 55.58 57.79 58.73 60.83 64.47 61.57
37.93 37.89 37.68 37.21 36.90 36.47 35.72 35.27 34.68 33.41 33.87 34.35 35.35 35.79 35.83 35.71 34.70 34.01 33.18 33.04 33.65 34.12 34.70 36.52 36.60 36.49 37.83 39.98 38.43 40.44 40.89 43.19 42.94 44.26 47.26 49.25 49.50 52.32 55.15 57.25 57.69 60.13 63.88
36.86 37.05 36.81 36.52 36.52 35.77 34.94 34.49 34.52 34.08 33.72 33.65 34.21 34.44 35.04 34.97 34.34 34.32 31.90 32.11 33.68 33.19 33.98 34.38 35.07 35.24 36.71 38.73 37.51 38.53 38.18 40.83 45.53 44.53 49.29 50.86 50.16 51.29 55.96 58.38 59.17 60.45 62.74
35.30 35.52 36.22 35.70 35.63 35.86 35.60 35.08 34.80 34.75 33.84 32.93 32.71 32.61 33.89 34.19 32.70 33.13 32.39 32.24 31.86 32.93 32.50 33.13 34.45 33.76 33.64 36.81 38.57 38.19 37.52 36.35 39.29 43.26 44.49 47.90 47.16 48.45 52.20 56.04 56.93 59.33 61.06
34.57 35.66 36.16 36.20 35.25 34.94 34.86 33.61 31.97 30.57 29.49 30.22 30.66 31.28 32.01 33.19 31.63 31.57 33.25 32.34 31.73 32.63 32.41 31.87 33.36 33.06 33.68 32.45 35.52 39.79 38.12 39.30 38.12 37.48 43.41 43.70 47.12 48.81 49.83 50.32 52.30 57.34 58.15
35.39 34.84 35.54 35.11 34.18 33.00 32.45 31.96 30.78 29.20 29.12 28.88 28.74 28.96 29.61 31.04 30.72 30.00 30.46 31.49 29.39 30.84 32.18 31.64 30.76 32.09 32.19 31.86 32.75 33.70 34.73 37.61 39.17 39.96 38.08 40.89 44.12 47.46 48.95 49.13 51.10 54.10 54.15
34.06 34.38 33.86 33.16 32.59 32.42 31.40 30.25 28.65 27.31 26.84 26.14 26.49 26.35 27.26 28.64 28.32 27.98 28.65 28.86 28.28 29.21 30.37 30.25 28.94 30.34 31.08 31.30 31.26 31.36 31.96 32.96 34.41 35.47 36.17 38.06 39.90 43.45 46.58 48.99 50.50 50.05 51.15
MSLP
1014.13 1013.89 1013.51 1013.49 1013.61 1013.37 1012.91 1012.76 1012.95 1013.13 1013.15 1013.12 1013.30 1013.44 1013.57 1013.75 1013.81 1013.81 1013.85 1013.83 1013.85 1013.76 1013.82 1013.92 1013.90 1013.99 1014.03 1014.11 1014.19 1014.18 1014.10 1014.11 1014.10 1013.83 1013.77 1013.50 1013.54 1013.62 1013.63 1013.83 1013.87 1013.94 1014.15
1014.17 1013.96 1013.64 1013.01 1013.84 1014.15 1013.50 1013.09 1013.20 1013.27 1013.26 1013.24 1013.30 1013.46 1013.63 1013.85 1013.94 1013.93 1014.02 1014.08 1014.09 1014.01 1014.01 1014.00 1014.04 1014.01 1014.08 1014.10 1014.27 1014.23 1014.22 1014.22 1014.16 1014.07 1013.91 1013.71 1013.67 1013.60 1013.82 1013.81 1013.79 1014.03 1014.11
1014.74 1014.39 1014.18 1013.01 1013.70 1014.00 1014.24 1013.52 1013.48 1013.53 1013.49 1013.44 1013.45 1013.51 1013.63 1013.71 1013.83 1013.84 1013.99 1014.06 1014.16 1014.24 1014.25 1014.13 1014.18 1014.10 1014.15 1014.14 1014.18 1014.20 1014.25 1014.24 1014.17 1014.12 1014.01 1014.01 1013.91 1013.82 1013.87 1013.85 1013.90 1014.08 1014.07
1014.94 1014.84 1014.66 1014.52 1014.11 1014.30 1014.36 1014.11 1013.87 1013.83 1013.90 1013.85 1013.66 1013.66 1013.72 1013.72 1013.72 1013.86 1013.97 1014.06 1014.21 1014.15 1014.10 1014.20 1014.16 1014.08 1014.16 1014.24 1014.17 1014.25 1014.23 1014.14 1014.15 1014.10 1014.04 1013.94 1013.99 1013.71 1013.75 1013.85 1013.94 1014.10 1014.17
1015.22 1015.41 1014.83 1015.33 1014.68 1014.49 1014.73 1014.57 1014.30 1014.14 1014.25 1014.26 1014.09 1014.02 1014.06 1014.08 1014.04 1014.12 1014.04 1014.01 1014.07 1014.11 1014.10 1014.00 1014.00 1014.02 1014.09 1014.17 1014.14 1014.16 1014.20 1014.14 1014.13 1014.04 1014.01 1013.81 1013.94 1013.71 1013.63 1013.71 1013.79 1013.91 1014.11
1015.42 1015.74 1015.65 1015.68 1014.56 1015.04 1015.07 1014.79 1014.77 1014.57 1014.60 1014.55 1014.46 1014.35 1014.37 1014.34 1014.34 1014.37 1014.34 1014.19 1014.13 1014.11 1014.01 1014.11 1013.98 1014.04 1014.02 1014.02 1014.03 1014.05 1014.07 1014.08 1014.19 1014.13 1013.94 1013.80 1013.67 1013.53 1013.50 1013.58 1013.68 1013.81 1013.98
1016.02 1016.13 1016.13 1015.57 1015.48 1015.44 1015.36 1015.31 1015.20 1015.13 1015.18 1015.10 1015.19 1015.02 1014.93 1014.83 1014.82 1014.83 1014.68 1014.54 1014.36 1014.26 1014.24 1013.99 1014.07 1013.94 1013.87 1013.83 1013.75 1013.81 1013.94 1013.99 1014.03 1014.10 1013.96 1013.78 1013.66 1013.37 1013.27 1013.34 1013.51 1013.62 1013.77
1016.33 1016.64 1016.59 1016.13 1015.83 1015.80 1015.88 1015.76 1015.71 1015.70 1015.81 1015.90 1015.82 1015.71 1015.65 1015.42 1015.29 1015.13 1015.13 1014.95 1014.77 1014.49 1014.35 1014.20 1014.01 1013.88 1013.67 1013.60 1013.53 1013.57 1013.65 1013.71 1013.67 1013.74 1013.77 1013.59 1013.45 1013.37 1013.18 1013.14 1013.33 1013.48 1013.73
1016.45 1016.63 1016.69 1016.61 1016.64 1016.74 1016.50 1016.50 1016.47 1016.36 1016.42 1016.32 1016.29 1016.30 1016.14 1015.93 1015.76 1015.69 1015.47 1015.20 1015.01 1014.72 1014.51 1014.57 1014.26 1013.95 1013.66 1013.39 1013.37 1013.32 1013.35 1013.47 1013.50 1013.39 1013.38 1013.30 1013.11 1013.12 1012.98 1012.69 1012.80 1013.02 1013.37
1016.73 1016.73 1016.85 1017.09 1017.15 1017.25 1017.42 1017.17 1016.86 1016.91 1016.85 1016.83 1016.66 1016.62 1016.61 1016.47 1016.34 1016.18 1015.95 1015.62 1015.47 1015.17 1014.66 1014.79 1014.57 1014.13 1013.80 1013.42 1013.10 1013.00 1013.04 1013.05 1013.14 1012.98 1012.91 1012.87 1012.72 1012.54 1012.55 1012.42 1012.32 1012.62 1012.92
1017.52 1017.69 1017.70 1017.64 1017.55 1017.50 1017.57 1017.56 1017.57 1017.43 1017.44 1017.43 1017.37 1017.23 1017.03 1016.93 1016.93 1016.94 1016.51 1016.31 1016.01 1015.78 1015.25 1014.92 1014.95 1014.60 1014.16 1013.70 1013.22 1012.85 1012.68 1012.59 1012.62 1012.46 1012.37 1012.26 1012.45 1012.40 1012.07 1012.10 1012.21 1012.28 1012.50
1018.11 1018.22 1018.26 1018.16 1018.15 1018.00 1017.94 1018.07 1017.90 1017.81 1017.76 1017.71 1017.74 1017.87 1017.76 1017.62 1017.41 1017.32 1017.12 1016.79 1016.59 1016.32 1016.05 1015.43 1015.05 1014.97 1014.63 1014.33 1013.79 1013.31 1012.64 1012.27 1012.06 1012.01 1011.82 1011.60 1011.65 1011.77 1011.86 1011.70 1011.73 1011.98 1012.06
1018.64 1018.82 1018.79 1018.58 1018.58 1018.58 1018.72 1018.67 1018.32 1018.31 1018.15 1018.04 1018.26 1018.06 1018.12 1018.22 1017.97 1017.91 1017.68 1017.42 1017.10 1016.80 1016.53 1016.01 1015.62 1015.34 1015.13 1014.70 1014.12 1013.70 1013.11 1012.53 1011.76 1011.45 1011.31 1011.07 1011.13 1011.09 1011.07 1011.25 1011.35 1011.30 1011.66
1018.89 1019.03 1018.95 1018.75 1018.71 1018.85 1018.85 1018.95 1018.90 1018.66 1018.77 1018.74 1018.91 1018.81 1018.62 1018.47 1018.37 1018.35 1018.31 1018.02 1017.79 1017.49 1017.15 1016.67 1016.19 1015.79 1015.27 1014.83 1014.32 1013.71 1013.24 1012.77 1012.11 1011.43 1010.96 1010.88 1010.69 1010.64 1010.63 1010.56 1010.67 1010.82 1010.90
1019.09 1019.39 1019.32 1019.16 1019.25 1019.16 1019.14 1019.13 1019.03 1019.35 1019.48 1019.43 1019.40 1019.41 1019.46 1019.31 1019.02 1018.74 1018.37 1018.17 1018.12 1017.95 1017.52 1017.00 1016.38 1015.88 1015.43 1014.87 1014.37 1013.81 1013.15 1012.75 1012.32 1011.71 1010.97 1010.53 1010.43 1010.29 1010.25 1010.13 1010.03 1010.07 1010.19
1019.44 1019.54 1019.68 1019.77 1019.75 1019.53 1019.67 1019.61 1019.70 1019.54 1019.83 1020.10 1020.19 1019.95 1019.76 1019.81 1019.66 1019.28 1018.81 1018.35 1018.05 1017.91 1017.65 1017.18 1016.59 1015.93 1015.44 1014.92 1014.37 1013.85 1013.42 1012.93 1012.35 1011.89 1011.21 1010.50 1009.97 1009.85 1009.74 1009.67 1009.52 1009.53 1009.46
1019.25 1019.56 1019.75 1019.86 1020.00 1020.06 1020.07 1020.23 1020.37 1020.36 1020.35 1020.43 1020.71 1020.65 1020.31 1020.12 1020.01 1019.71 1019.36 1019.05 1018.61 1018.08 1017.56 1017.16 1016.70 1015.95 1015.35 1014.77 1014.27 1013.77 1013.32 1012.75 1012.18 1011.59 1011.10 1010.53 1009.88 1009.38 1009.27 1009.16 1009.11 1009.05 1008.94
1019.75 1019.81 1019.95 1020.20 1020.43 1020.55 1020.73 1020.71 1020.82 1021.02 1020.99 1021.10 1021.16 1021.03 1020.90 1020.61 1020.32 1020.09 1019.79 1019.50 1019.04 1018.47 1017.86 1017.36 1016.87 1016.33 1015.52 1014.75 1014.01 1013.40 1012.91 1012.40 1011.94 1011.39 1010.87 1010.38 1009.75 1009.19 1008.80 1008.62 1008.55 1008.55 1008.45
1020.42 1020.55 1020.61 1020.50 1020.97 1021.05 1020.98 1021.18 1021.44 1021.65 1021.73 1021.82 1021.74 1021.59 1021.38 1021.05 1020.72 1020.46 1020.17 1019.87 1019.39 1018.69 1018.25 1017.59 1016.96 1016.66 1015.78 1014.78 1013.88 1013.02 1012.51 1011.95 1011.34 1010.73 1010.36 1009.99 1009.57 1009.20 1008.67 1008.07 1007.94 1007.88 1007.87
1020.71 1020.91 1020.97 1020.92 1021.07 1021.32 1021.47 1021.72 1021.88 1022.08 1022.31 1022.33 1022.25 1022.15 1022.00 1021.73 1021.31 1020.95 1020.59 1020.26 1019.74 1019.23 1018.27 1017.80 1017.22 1016.59 1016.11 1015.07 1013.66 1012.60 1011.88 1011.24 1010.63 1010.39 1009.96 1009.43 1008.97 1008.64 1008.36 1008.02 1007.66 1007.31 1007.22
1021.26 1021.37 1021.59 1021.68 1021.69 1021.71 1021.88 1022.26 1022.59 1022.86 1022.88 1022.86 1022.56 1022.41 1022.16 1021.92 1021.67 1021.40 1021.18 1020.71 1020.17 1019.44 1018.94 1018.35 1017.79 1016.56 1016.09 1015.30 1014.00 1012.36 1011.00 1009.95 1010.26 1010.11 1009.48 1009.12 1008.80 1008.41 1008.06 1007.84 1007.49 1006.99 1006.61
1021.66 1022.02 1022.15 1021.99 1022.19 1022.32 1022.28 1022.54 1022.80 1023.14 1023.23 1023.19 1023.11 1022.78 1022.47 1022.12 1021.93 1021.64 1021.63 1021.13 1020.26 1019.75 1019.35 1018.76 1018.13 1017.44 1016.18 1015.99 1015.02 1013.60 1011.53 1010.41 1009.97 1009.77 1009.31 1009.11 1008.89 1008.39 1007.90 1007.38 1006.97 1006.54 1006.14
1022.03 1022.39 1022.56 1022.54 1022.45 1022.60 1022.63 1022.99 1023.33 1023.35 1023.47 1023.48 1023.37 1023.16 1022.85 1022.59 1022.37 1022.02 1021.87 1021.47 1020.94 1020.35 1019.71 1019.21 1018.62 1018.07 1017.11 1016.43 1015.70 1015.20 1013.49 1012.21 1011.52 1009.98 1009.40 1009.20 1009.00 1008.57 1007.99 1007.65 1007.15 1006.47 1005.98
1022.25 1022.66 1022.86 1023.11 1022.98 1022.97 1023.17 1023.46 1023.94 1024.10 1024.17 1024.30 1024.12 1023.67 1023.49 1023.18 1022.83 1022.41 1022.14 1021.82 1021.32 1020.69 1020.28 1019.58 1019.38 1018.48 1018.24 1017.11 1016.24 1015.20 1015.20 1014.40 1012.81 1010.93 1010.05 1009.62 1009.17 1008.74 1008.23 1007.64 1007.28 1006.88 1006.41
1022.38 1022.81 1023.03 1023.40 1023.66 1023.67 1023.73 1023.94 1024.38 1024.78 1024.77 1024.67 1024.48 1024.27 1023.94 1023.57 1023.40 1023.07 1022.89 1022.46 1021.82 1021.55 1020.81 1020.43 1019.51 1019.14 1018.75 1018.04 1017.24 1016.32 1015.52 1014.43 1013.42 1012.45 1010.70 1010.05 1009.55 1009.05 1008.46 1007.93 1007.45 1007.21 1006.78
1022.25 1022.83 1023.33 1023.40 1023.75 1024.09 1024.29 1024.47 1024.64 1024.80 1025.22 1025.37 1025.15 1024.49 1024.48 1024.03 1023.88 1023.74 1023.24 1022.70 1022.58 1021.87 1021.24 1020.82 1020.36 1019.66 1019.20 1018.51 1017.88 1017.24 1016.56 1015.71 1014.49 1013.86 1012.46 1011.34 1010.27 1009.13 1008.27 1007.84 1007.82 1007.88 1007.48
Wind_Speed
4 7 13 13 14 13 13 13 12 10 11 11 11 10 9 8 8 7 7 7 7 8 7 6 6 6 7 6 5 5 5 5 4 3 2 4 7 9 10 9 8 6 11
4 6 10 15 12 11 12 14 13 13 12 12 11 9 8 7 6 6 5 4 3 4 5 4 4 4 3 4 3 3 3 3 4 3 2 1 5 9 10 9 9 6 9
7 6 8 13 12 11 11 13 13 14 15 12 11 9 8 7 5 4 3 2 1 2 2 1 1 1 1 1 2 2 2 2 2 2 3 1 1 7 6 6 10 10 10
6 5 6 12 12 12 11 12 13 14 14 13 13 14 13 12 8 5 3 2 3 2 3 5 5 3 3 3 3 4 3 3 3 3 2 2 3 5 9 7 9 11 11
8 6 8 8 12 13 12 13 14 14 14 14 13 12 10 10 10 10 8 6 5 6 6 6 6 5 5 5 5 5 5 5 4 3 3 4 3 6 9 9 10 12 10
10 7 8 9 15 14 13 14 14 15 15 15 15 15 15 14 13 11 11 10 10 9 9 9 7 7 7 6 7 7 6 7 6 4 5 5 5 8 10 9 10 11 12
8 7 7 14 14 14 15 16 16 17 17 17 16 16 16 16 15 15 16 15 14 15 14 10 9 8 8 7 7 8 7 7 5 4 5 5 5 8 10 10 12 12 13
9 7 7 13 16 16 15 17 17 17 17 17 17 16 16 17 17 16 16 17 16 16 17 14 11 10 9 9 9 8 8 7 6 5 5 5 9 11 12 10 12 12 13
8 7 7 9 12 16 17 17 16 17 16 16 17 17 17 17 17 16 16 17 16 16 17 17 17 16 12 10 10 10 9 8 6 4 5 4 11 13 16 17 16 15 15
7 8 8 7 7 7 7 17 16 17 16 16 17 16 17 17 17 17 17 18 17 17 17 18 18 18 18 13 10 10 10 10 6 6 5 5 13 16 16 15 16 17 17
7 7 7 7 7 7 7 9 12 15 16 15 14 17 12 7 7 11 16 18 18 19 17 18 19 18 18 16 15 12 10 5 6 6 5 10 13 16 17 13 14 18 18
5 6 6 7 7 6 6 6 6 6 6 7 8 8 6 8 8 10 13 18 18 20 19 19 18 17 14 7 7 13 5 6 6 6 6 13 16 17 18 16 14 17 19
5 6 6 6 6 7 6 4 3 3 4 5 8 7 6 6 6 6 5 6 7 15 8 11 9 6 8 7 7 7 8 9 6 5 9 13 15 19 19 17 16 19 22
7 6 6 6 6 6 4 4 4 4 4 5 6 10 6 5 6 6 5 6 7 6 8 7 6 8 8 8 8 9 9 7 6 6 6 13 15 19 21 19 18 18 22
9 6 6 7 6 6 6 4 5 5 6 6 7 9 7 6 5 5 4 5 5 6 6 7 7 7 8 8 8 9 9 8 9 6 6 11 13 16 19 22 20 20 23
8 7 6 7 7 7 6 7 5 5 5 6 7 7 8 6 6 6 6 6 6 7 7 7 7 7 6 6 7 9 10 9 9 10 8 9 12 14 17 20 21 21 24
7 7 7 7 7 7 7 6 6 6 6 7 6 8 9 8 8 7 6 7 7 7 9 8 8 7 8 7 8 7 8 10 9 10 9 8 9 11 13 16 18 21 23
8 9 8 8 7 7 7 6 6 6 6 6 6 6 9 10 10 7 6 6 8 7 7 7 8 9 8 8 8 8 8 7 9 10 10 9 8 7 8 12 15 19 21
8 8 8 8 7 7 7 6 7 8 6 6 5 6 9 9 10 8 7 7 9 7 7 8 8 10 11 9 9 9 8 8 10 9 11 12 11 10 8 10 11 16 18
8 7 7 6 7 6 5 5 5 5 5 4 5 6 8 7 10 8 7 8 8 8 8 9 10 9 9 12 12 11 8 9 9 8 9 9 9 9 9 10 9 7 14
7 8 7 7 6 4 4 3 4 3 3 4 5 7 7 7 9 8 7 8 8 8 11 11 9 11 9 10 10 10 8 9 4 6 7 6 7 9 9 9 8 8 8
7 7 6 7 6 5 3 3 3 2 3 2 3 5 8 8 10 9 9 8 10 8 10 11 11 9 7 9 7 10 6 4 7 9 3 5 7 8 7 7 8 10 10
7 7 6 6 7 6 6 4 3 3 2 3 5 5 6 9 10 10 9 9 9 9 8 10 10 12 8 9 11 5 5 4 11 3 12 5 11 8 7 8 9 10 10
7 6 6 6 7 7 6 6 5 3 3 3 3 4 5 8 9 10 11 9 10 8 10 10 10 9 9 9 8 7 9 9 4 7 4 12 8 9 10 8 9 10 11
7 6 8 8 8 7 7 6 4 5 3 2 3 5 6 5 8 10 9 9 9 8 9 10 10 10 8 7 8 8 9 8 9 6 10 8 9 6 7 6 8 5 8
8 7 6 8 8 7 7 6 7 7 5 4 4 4 4 5 6 9 10 9 8 9 10 9 10 11 10 9 8 9 8 6 7 6 6 10 10 9 8 7 6 6 7
Wind_Direction
44 32 41 45 36 40 55 58 58 60 64 63 67 76 83 88 95 101 109 116 123 120 109 91 69 49 39 44 42 30 24 17 23 27 36 117 135 142 142 144 139 134 153
87 41 49 73 48 37 56 60 59 57 64 67 62 63 71 85 96 97 92 88 89 104 110 98 77 64 57 40 20 18 6 12 358 353 345 62 149 154 161 160 145 148 149
61 42 37 71 73 58 50 66 64 62 59 66 60 67 57 55 60 78 92 91 53 1 347 29 50 24 25 12 351 342 329 336 328 315 329 339 243 170 175 180 162 166 152
71 51 50 47 69 65 60 62 67 67 64 57 45 35 34 36 33 22 12 351 315 303 299 298 302 312 306 295 309 314 313 312 307 305 326 281 260 221 194 187 175 177 173
68 43 55 69 66 65 64 66 66 67 65 53 52 48 38 25 18 17 8 344 319 308 299 293 298 301 297 288 291 294 305 299 283 282 267 265 245 261 217 207 197 187 186
73 51 38 48 60 63 64 65 66 67 61 50 49 47 42 41 34 26 12 4 351 329 309 302 295 293 289 283 274 281 285 285 287 275 267 258 249 247 235 211 193 190 185
65 37 24 36 50 57 56 58 59 62 53 48 44 46 43 44 39 34 34 30 23 14 343 319 299 283 279 275 267 265 269 273 274 262 270 270 253 242 235 209 199 198 194
71 51 33 37 41 42 51 55 54 59 47 44 43 42 42 42 39 36 29 26 21 19 14 357 323 295 280 273 268 260 259 255 264 250 246 266 268 257 236 231 211 202 202
76 64 43 39 40 39 46 50 56 53 47 46 44 38 36 36 34 28 26 22 18 17 14 8 8 359 319 279 271 266 259 256 258 250 244 247 264 264 260 266 208 202 203
68 61 52 46 46 44 26 41 51 42 45 45 40 40 35 31 28 25 22 17 12 13 15 8 6 4 355 325 284 268 259 253 250 253 243 234 244 265 266 275 210 204 204
55 47 49 49 44 40 50 40 42 44 41 37 33 30 30 26 20 20 16 12 9 9 14 13 4 1 358 354 338 297 267 255 233 244 243 248 239 253 267 275 223 209 205
80 59 52 47 45 40 45 33 37 36 38 41 35 25 20 27 25 24 19 16 11 8 358 2 2 356 358 344 335 338 311 260 246 246 247 241 245 247 246 251 249 217 210
90 60 46 52 46 43 31 24 29 31 34 38 35 36 28 22 21 17 10 8 6 1 357 352 351 352 338 333 327 319 319 325 294 248 251 253 245 253 253 243 244 221 217
100 91 67 59 60 51 57 45 35 41 30 40 33 28 30 30 27 21 10 3 2 354 345 342 337 329 329 323 314 313 310 309 307 301 266 254 255 255 258 255 245 237 218
107 95 66 60 50 45 51 46 49 39 41 44 41 35 27 21 15 6 9 6 1 345 340 331 327 326 321 317 314 310 308 313 312 303 302 273 260 263 260 260 251 241 224
110 94 72 57 55 55 51 49 41 54 50 47 39 30 30 24 7 1 359 5 1 346 335 326 320 318 309 306 308 310 311 302 297 299 299 300 268 257 264 262 259 250 234
121 113 89 77 57 58 58 48 47 49 50 52 35 25 24 23 9 0 1 356 349 339 331 328 323 323 317 312 302 301 297 293 291 291 291 291 291 286 265 260 257 257 247
101 87 75 73 65 59 51 53 58 43 50 46 32 27 18 16 13 5 359 354 342 338 334 335 334 324 318 314 311 303 289 276 281 286 285 281 284 283 280 262 253 253 251
94 89 76 68 59 60 60 63 60 51 44 36 31 24 16 12 10 7 355 349 346 342 336 340 338 331 322 314 305 304 297 284 276 274 270 271 269 275 282 277 257 248 250
96 89 85 79 73 74 72 72 63 59 44 32 34 30 23 13 9 9 359 351 349 341 340 341 335 333 320 315 312 302 286 268 259 262 267 266 264 271 275 278 284 276 248
83 86 73 74 52 58 65 69 60 57 32 27 35 24 23 25 15 14 3 355 349 350 345 344 332 330 325 325 318 321 294 273 263 261 262 271 269 267 269 272 271 269 266
106 95 88 82 64 50 53 56 86 105 61 53 13 16 19 23 14 15 6 353 1 352 349 347 339 336 331 336 315 301 333 337 2 337 347 328 19 352 314 274 263 268 267
110 112 102 81 76 64 58 55 48 58 39 24 22 17 9 26 17 8 7 7 359 0 355 348 348 349 332 330 343 309 327 326 343 312 325 1 340 326 321 335 346 328 305
119 113 103 92 81 71 58 67 68 69 50 4 358 4 0 20 19 11 1 3 2 356 358 0 354 350 342 337 337 348 320 310 310 314 323 322 321 336 322 320 333 343 347
123 114 106 96 78 70 72 75 73 57 45 19 9 13 6 19 15 9 4 359 5 353 0 356 0 355 357 337 339 336 318 317 271 291 301 347 328 329 317 307 311 350 358
124 112 111 103 90 81 72 66 71 67 47 25 11 26 7 11 9 5 1 6 4 2 2 0 360 360 356 356 349 343 334 323 325 314 310 316 303 305 307 299 21 5 8